Vertical_Velocity
-4 -5 -5 -2 -1 -2 2 4 3 -1 -1 1 -2 -7 -13 1 0 12 -25 30 -9 -0 -9 13 -1 -7 16 4 -4 -1 -3 -5 -1 -5 -4 -2 -2 -4 -4 -4 -5 -6 -6 -1 -1 -2 -12 -1 2 -10 -13 5 -2 2
3 -1 -1 -1 0 2 3 2 -1 -0 2 2 -1 -5 11 11 -4 28 1 -11 15 10 -5 8 5 -1 13 -22 -14 7 -11 -1 -0 -4 -2 -2 -1 -1 -2 -4 2 -7 -12 -12 -13 -15 -4 -1 -2 0 -1 -6 2 -5
-2 0 0 1 2 2 1 -3 -2 1 0 -1 1 -1 -2 -6 5 -1 2 -6 11 0 -26 5 0 8 5 2 -7 -18 4 1 -15 1 -4 -2 -4 -5 -3 -4 -2 -1 0 -3 -7 -3 1 -0 4 1 6 -5 0 3
1 0 -2 0 2 -0 -4 1 4 9 6 3 0 -4 13 -8 6 10 6 -13 1 6 2 -8 5 4 8 8 10 -14 -5 3 7 1 -2 -1 -4 -1 -3 -9 -5 -9 -4 -2 1 -0 0 3 4 2 0 4 1 2
-1 -2 -2 -0 1 0 2 0 -1 3 5 -0 8 3 9 6 3 2 5 -22 -17 14 4 -6 -0 9 16 7 3 6 2 3 3 -2 -2 -2 0 -5 -1 -4 -1 -3 -6 -6 -8 -6 -5 -0 5 5 -3 -0 1 1
-0 -3 -1 1 2 3 2 1 2 4 5 5 -2 -3 -6 6 -2 -7 -0 -12 1 10 3 -3 -5 5 20 18 13 -8 -3 -1 1 -2 -0 1 1 -4 -3 -1 -2 1 -0 -0 -7 1 -1 -0 2 5 -3 0 1 -0
3 -0 0 -1 -0 0 1 2 1 2 4 -0 6 -0 9 2 -7 -22 -13 9 8 6 4 0 -2 -1 7 4 10 -1 4 -5 -4 -0 -1 -1 -0 -3 -1 -2 -1 3 3 0 5 -9 4 5 -3 2 2 0 3 -0
-3 -2 -1 0 -1 0 2 3 1 -2 -5 -3 -1 4 3 5 16 -4 12 19 8 -8 5 -2 -3 -8 2 1 -2 4 0 2 -2 1 1 -1 -0 -1 -2 0 2 4 1 3 5 0 -2 -1 1 1 3 2 -0 -1
1 1 -3 -0 -1 0 -1 -6 -6 2 -1 -3 -5 3 9 12 10 -22 -15 -18 -20 -8 -2 -1 -4 -4 3 1 1 -2 2 -3 1 -1 -1 -3 -1 -2 -2 -1 1 3 -4 -4 3 3 2 -0 0 1 1 2 -4 -1
-3 -3 -0 0 -3 -1 1 -3 -6 6 -9 -0 -4 14 2 -4 2 8 2 8 17 13 1 -2 2 -3 3 0 1 -5 -1 -0 -2 -4 1 -3 -1 3 7 1 3 3 -1 -3 -12 2 2 2 -1 0 1 1 -1 -1
-0 2 2 -0 -5 -5 -4 2 -3 6 21 15 17 2 4 4 -18 1 1 -2 0 -3 -2 2 4 -1 -2 -4 -0 1 -0 -0 -3 -8 -8 0 -0 -0 5 1 4 4 3 2 4 2 4 -1 -7 -6 1 1 1 -0
2 -0 -2 -3 -5 -7 -4 3 2 -16 0 14 -9 -16 -8 2 3 -5 0 -3 -3 0 -1 -1 -0 3 -1 2 -5 -0 -1 -3 -1 -1 -5 0 -3 5 1 -0 1 0 3 -2 5 -4 2 -1 -0 -2 -2 -2 -1 -1
2 0 -1 -2 -4 -4 -7 -1 19 26 7 -24 3 4 0 1 -7 -5 0 0 -0 -0 2 2 -2 0 -3 -3 -1 -2 -3 -1 -1 -2 -1 -1 1 6 3 2 3 6 -2 -1 -1 0 0 -2 1 0 -5 -1 -1 -1
9 7 2 3 6 1 6 4 11 3 3 -4 -2 -2 -3 -1 1 1 1 0 -0 -0 -0 0 -0 -3 2 -4 1 -4 -1 -3 -0 -0 -2 -0 -1 -1 4 4 -4 1 3 -1 -1 -2 -1 -1 -1 1 3 0 -1 -0
3 7 10 13 26 12 9 5 5 1 -10 -10 -10 -0 -1 2 1 1 1 -0 -0 -1 0 -1 -0 -4 0 -2 -1 -0 -1 0 -1 -1 -1 -0 2 1 0 0 1 1 2 -0 -0 -3 -2 2 1 -1 1 0 1 0
-15 -13 -4 7 15 17 11 5 0 -7 -5 -4 -7 -2 -0 -4 -1 -2 -1 -2 1 2 1 2 -0 -3 1 -1 -2 1 -2 -0 0 0 1 4 3 5 1 3 -0 -1 0 -5 -0 2 -0 1 1 0 -0 1 1 1
7 -13 12 14 10 2 3 -6 1 -13 -4 -5 -1 -3 -2 -1 -0 -1 -1 1 2 4 0 -1 -4 3 -1 -2 -1 1 1 2 2 4 3 1 -3 1 2 -1 0 -0 -0 2 1 1 0 1 1 0 -0 0 -0 -1
-21 2 3 4 -2 -12 -14 -13 -9 -7 -3 -0 -1 5 4 5 6 2 5 3 -3 -1 -2 2 -1 -4 1 0 0 1 2 4 3 2 3 1 1 1 1 -1 0 -3 -2 1 2 1 3 2 2 1 2 2 0 -1
-1 -1 -2 -5 -1 -13 -7 -9 -2 -3 4 1 0 1 3 9 10 9 2 3 -2 -1 -6 -4 -4 1 2 1 1 2 4 2 2 2 2 3 0 -1 0 4 5 6 6 2 1 0 1 3 2 2 1 1 2 2
2 2 1 -2 -1 -11 -6 -2 0 -4 -0 -1 0 -4 -3 4 4 4 2 -2 -4 -6 -7 -2 2 5 4 7 6 5 5 4 3 1 4 7 7 3 4 2 3 3 2 3 4 4 3 0 -0 -2 -0 1 -1 -1
-1 -5 -1 -2 -26 -9 -4 1 -1 -3 -0 -3 0 -1 2 -2 -8 -6 -5 2 -18 0 0 5 5 4 4 4 4 4 2 3 -0 0 2 1 6 3 3 4 4 3 2 3 2 2 1 -1 -2 -1 -1 -0 1 1
-2 2 -3 -4 -8 -3 -4 -0 0 3 -2 2 -1 0 -1 -2 0 -1 -0 -14 0 9 1 5 4 2 -0 -3 0 -0 2 2 3 5 5 4 -3 -2 -1 -1 0 -1 4 2 2 0 0 -1 -2 -0 1 2 1 1
-5 -6 -8 -3 -8 -5 -0 1 -5 -1 -4 0 -2 -3 -1 -1 4 4 -5 2 4 11 12 -1 0 2 -1 3 2 0 1 3 -2 0 2 -0 -0 1 1 -0 2 1 0 0 1 -1 -2 -2 -1 0 0 -1 -2 -1
-1 -13 -7 -3 -4 0 -0 -3 0 -2 -2 -2 -1 -0 -1 1 2 -6 1 1 9 7 -0 6 2 0 2 1 -4 -1 -0 2 -0 -0 2 2 -0 -0 2 1 1 1 1 -1 -1 0 0 -0 -1 -1 -1 -0 0 0
-23 -5 -4 -2 1 -6 -2 -1 -1 -3 0 0 -2 -1 -2 0 -2 -1 1 3 0 1 2 2 0 -1 -2 1 1 0 1 0 -1 -2 -0 2 1 2 1 0 0 0 -0 -0 0 0 0 0 0 0 0 -0 -0 0
-7 1 -5 3 1 -4 1 -1 -0 0 -0 -0 0 -0 1 -3 -4 2 2 2 0 1 1 0 0 0 -2 0 1 0 -0 0 2 -0 -0 1 -0 -1 -1 -1 -1 -2 -1 -1 -0 -0 -1 -1 -0 1 1 2 1 -0
-3 -0 -2 5 0 0 -2 1 3 -5 -1 -0 0 -2 -2 -3 1 5 4 0 1 1 1 1 1 -0 -0 -0 0 0 1 1 0 -1 -0 1 -0 -0 0 -0 -1 -1 -1 -1 -0 1 1 2 1 0 -1 -1 -1 1
3 -3 -1 4 -2 2 -1 -1 -1 0 0 1 -2 -2 -1 -0 3 6 4 8 4 1 -0 -0 -1 -0 -1 -1 -0 1 2 0 -1 -0 0 0 0 -1 -1 -1 -1 -1 -1 -1 -1 -1 -1 -1 -2 -2 -1 -1 -1 4
-2 1 -3 -2 -0 -2 1 2 2 1 2 1 -2 1 2 0 7 4 2 7 4 2 -1 -1 -1 1 -0 0 1 0 1 3 2 1 -0 -1 -0 0 -0 -0 -0 1 -0 -0 1 -0 1 1 0 0 2 1 -0 0
1 4 -1 -0 -2 1 3 1 -2 -0 -2 -2 -5 -1 -4 1 7 5 2 1 0 -1 0 1 1 2 -1 0 -0 -0 -0 -0 -1 -0 -0 -1 -1 -1 -2 -1 -1 0 1 1 0 -0 1 1 2 2 1 0 -0 0
-1 -1 -2 -0 0 1 1 7 5 1 -3 -0 3 -6 -3 -1 2 2 -1 2 1 1 2 -0 0 1 2 1 -0 -0 -1 -1 -0 -1 -0 0 1 1 1 -0 -1 -1 -2 -2 -1 -0 -1 -0 0 -0 -0 -1 -0 0
-1 -1 -1 -1 1 2 0 1 6 -1 5 1 2 -1 2 0 -1 0 0 2 1 -0 -0 0 0 -2 -1 -1 -1 -2 -2 -2 -2 -2 -3 -2 0 0 0 0 0 -0 0 1 0 0 -0 -1 -0 0 0 0 1 1
1 -2 -0 -1 0 1 1 2 2 0 1 0 1 -1 -0 -1 0 1 -0 1 0 -0 -0 -0 -0 0 -0 1 -1 -1 -1 0 1 1 -1 1 -1 -1 -1 -1 -1 -1 -1 -1 0 -0 0 0 -0 -1 -0 -0 0 -0
Height
1205 1215 1225 1236 1247 1258 1268 1277 1286 1296 1305 1314 1323 1332 1341 1350 1361 1370 1377 1385 1393 1393 1381 1381 1384 1386 1392 1396 1404 1407 1415 1417 1425 1438 1446 1454 1461 1457 1462 1461 1467 1474 1490 1501 1498 1507 1492 1457 1460 1470 1467 1467 1469 1471
1222 1229 1237 1247 1255 1264 1272 1280 1287 1296 1303 1311 1320 1329 1337 1347 1361 1371 1381 1380 1386 1386 1381 1377 1377 1380 1384 1390 1397 1401 1403 1408 1412 1427 1436 1442 1453 1458 1459 1473 1456 1467 1464 1476 1475 1475 1455 1454 1455 1458 1461 1463 1467 1468
1234 1240 1247 1254 1262 1269 1275 1281 1287 1293 1301 1309 1319 1328 1337 1350 1361 1370 1379 1381 1388 1388 1379 1376 1373 1375 1381 1386 1392 1396 1402 1403 1408 1419 1421 1432 1439 1448 1461 1461 1451 1449 1450 1460 1463 1456 1455 1455 1456 1458 1460 1461 1464 1466
1242 1247 1253 1259 1265 1271 1278 1283 1287 1293 1299 1308 1319 1329 1340 1351 1359 1369 1375 1383 1393 1390 1380 1374 1374 1373 1372 1381 1385 1390 1395 1401 1407 1411 1414 1426 1435 1433 1449 1439 1446 1443 1445 1450 1459 1459 1456 1458 1457 1458 1460 1461 1462 1465
1248 1253 1259 1264 1270 1276 1282 1287 1292 1297 1305 1313 1323 1333 1342 1352 1359 1371 1376 1380 1383 1390 1384 1377 1374 1372 1373 1378 1387 1387 1392 1394 1399 1409 1415 1422 1421 1429 1436 1437 1443 1433 1439 1451 1455 1446 1449 1458 1460 1460 1459 1462 1464 1465
1253 1258 1263 1268 1274 1280 1286 1292 1298 1304 1311 1319 1327 1337 1344 1352 1361 1372 1378 1376 1379 1384 1388 1384 1378 1375 1374 1382 1381 1382 1393 1391 1398 1402 1410 1413 1417 1422 1438 1445 1429 1428 1429 1431 1437 1443 1446 1453 1457 1460 1459 1462 1464 1465
1255 1261 1267 1273 1279 1284 1290 1296 1302 1309 1316 1324 1332 1339 1346 1353 1360 1366 1374 1373 1377 1389 1391 1384 1376 1377 1376 1375 1377 1383 1391 1392 1405 1406 1409 1412 1416 1418 1430 1436 1426 1428 1427 1430 1433 1438 1449 1452 1455 1459 1460 1463 1465 1467
1259 1264 1270 1277 1282 1288 1294 1301 1308 1314 1321 1328 1336 1342 1351 1356 1364 1369 1370 1370 1375 1384 1386 1385 1382 1381 1381 1377 1382 1387 1388 1394 1403 1408 1410 1412 1416 1419 1427 1422 1425 1428 1429 1434 1437 1437 1442 1449 1455 1459 1461 1464 1465 1468
1259 1266 1273 1279 1285 1292 1298 1306 1312 1318 1325 1333 1338 1346 1353 1360 1361 1363 1363 1370 1372 1377 1375 1378 1382 1385 1385 1383 1385 1389 1389 1402 1407 1410 1413 1416 1425 1426 1421 1420 1422 1425 1427 1433 1437 1440 1446 1450 1455 1459 1462 1465 1467 1471
1259 1268 1275 1282 1287 1293 1301 1307 1313 1318 1327 1335 1342 1347 1348 1348 1354 1360 1368 1365 1370 1371 1370 1375 1378 1382 1380 1381 1388 1391 1395 1408 1415 1416 1413 1421 1431 1424 1422 1424 1426 1427 1427 1432 1436 1446 1449 1453 1457 1462 1465 1467 1469 1472
1263 1269 1275 1283 1289 1295 1303 1310 1317 1323 1329 1335 1340 1345 1350 1353 1362 1366 1365 1365 1368 1376 1374 1374 1373 1375 1383 1385 1393 1399 1405 1410 1419 1418 1418 1424 1429 1427 1427 1426 1428 1429 1433 1437 1439 1442 1448 1451 1456 1461 1466 1469 1471 1474
1273 1276 1281 1288 1294 1300 1306 1312 1320 1328 1332 1336 1340 1350 1354 1356 1361 1363 1370 1369 1372 1379 1381 1382 1383 1382 1387 1388 1395 1404 1408 1413 1414 1414 1420 1427 1426 1426 1426 1428 1431 1435 1436 1438 1442 1445 1450 1455 1459 1462 1466 1470 1472 1474
1285 1288 1293 1298 1302 1308 1313 1319 1322 1329 1332 1339 1342 1344 1349 1360 1368 1374 1376 1380 1381 1384 1382 1380 1383 1385 1391 1395 1399 1401 1407 1413 1414 1417 1418 1424 1423 1426 1427 1430 1433 1436 1437 1441 1445 1449 1453 1458 1462 1464 1467 1470 1473 1475
1295 1298 1302 1307 1312 1317 1321 1325 1330 1333 1337 1339 1348 1362 1364 1372 1379 1382 1381 1381 1382 1381 1380 1383 1386 1391 1395 1397 1402 1403 1412 1412 1417 1420 1419 1422 1423 1427 1429 1431 1433 1438 1440 1442 1446 1452 1457 1460 1462 1465 1468 1470 1472 1475
1309 1310 1313 1316 1321 1327 1330 1332 1334 1334 1333 1346 1358 1375 1381 1385 1386 1384 1384 1384 1385 1386 1386 1389 1390 1392 1398 1402 1405 1411 1412 1412 1414 1416 1421 1421 1424 1427 1430 1432 1434 1438 1442 1446 1450 1455 1459 1461 1463 1465 1468 1471 1473 1475
1321 1321 1324 1328 1330 1332 1334 1336 1337 1339 1355 1368 1379 1382 1383 1382 1386 1387 1388 1389 1389 1390 1391 1391 1390 1393 1403 1406 1408 1412 1411 1415 1420 1422 1422 1424 1425 1428 1430 1434 1438 1442 1446 1450 1454 1457 1460 1462 1465 1466 1469 1471 1473 1474
1328 1330 1334 1334 1334 1334 1334 1336 1342 1358 1374 1385 1395 1395 1397 1397 1396 1396 1396 1395 1392 1389 1390 1391 1396 1405 1407 1410 1417 1420 1422 1424 1424 1423 1424 1425 1428 1431 1434 1438 1443 1446 1449 1452 1455 1458 1461 1464 1466 1468 1469 1470 1472 1473
1334 1338 1339 1340 1341 1342 1343 1347 1362 1377 1387 1393 1394 1394 1394 1394 1392 1392 1391 1388 1386 1388 1393 1401 1406 1413 1422 1422 1429 1431 1429 1428 1427 1428 1429 1430 1433 1436 1439 1442 1445 1448 1451 1454 1457 1460 1462 1464 1466 1468 1469 1470 1471 1472
1341 1342 1342 1343 1345 1346 1359 1373 1378 1391 1400 1400 1401 1399 1398 1400 1398 1397 1395 1394 1393 1395 1401 1413 1423 1431 1437 1439 1438 1435 1432 1432 1433 1434 1435 1436 1438 1441 1443 1445 1447 1450 1452 1455 1457 1460 1462 1464 1466 1468 1469 1470 1471 1471
1346 1345 1346 1347 1348 1354 1372 1386 1391 1398 1406 1410 1409 1408 1408 1409 1408 1406 1403 1402 1402 1407 1420 1433 1443 1446 1445 1443 1441 1438 1436 1436 1437 1437 1439 1441 1442 1444 1445 1447 1449 1451 1453 1455 1457 1460 1462 1465 1466 1468 1470 1469 1468 1468
1352 1351 1352 1349 1351 1364 1383 1393 1399 1406 1411 1414 1415 1414 1417 1416 1414 1414 1414 1417 1418 1434 1445 1451 1451 1450 1448 1446 1443 1440 1438 1439 1440 1441 1442 1443 1445 1445 1447 1449 1451 1453 1455 1458 1460 1462 1463 1465 1466 1467 1468 1467 1465 1464
1356 1356 1355 1358 1367 1381 1395 1402 1406 1410 1413 1416 1417 1419 1422 1424 1426 1429 1433 1433 1446 1454 1455 1456 1454 1452 1450 1448 1446 1445 1445 1443 1443 1444 1446 1448 1449 1451 1453 1455 1456 1458 1459 1461 1462 1463 1464 1464 1465 1466 1465 1464 1463 1461
1360 1360 1366 1375 1382 1395 1411 1410 1411 1416 1420 1422 1424 1427 1430 1431 1435 1437 1447 1456 1461 1460 1460 1459 1458 1456 1455 1455 1453 1451 1451 1451 1450 1452 1453 1453 1455 1457 1458 1459 1460 1461 1462 1463 1464 1464 1464 1464 1464 1463 1462 1460 1459 1457
1366 1373 1385 1393 1401 1411 1415 1418 1421 1425 1426 1428 1432 1436 1438 1438 1441 1448 1460 1467 1469 1466 1464 1464 1463 1461 1461 1459 1457 1458 1458 1458 1457 1457 1459 1459 1459 1460 1462 1462 1463 1463 1464 1464 1464 1464 1464 1463 1461 1460 1458 1456 1455 1453
1379 1403 1407 1414 1417 1420 1426 1429 1430 1431 1436 1437 1440 1442 1442 1442 1449 1460 1466 1473 1472 1470 1469 1468 1467 1466 1465 1465 1465 1464 1464 1464 1463 1463 1463 1464 1464 1464 1465 1465 1465 1466 1466 1465 1464 1463 1461 1459 1458 1456 1454 1452 1450 1449
1407 1422 1424 1426 1430 1430 1432 1436 1437 1438 1438 1441 1444 1445 1444 1448 1463 1471 1475 1477 1476 1474 1473 1471 1471 1470 1469 1469 1468 1468 1468 1468 1468 1467 1467 1467 1467 1467 1467 1467 1467 1467 1465 1464 1462 1460 1458 1456 1454 1453 1451 1449 1446 1445
1427 1433 1433 1433 1433 1433 1435 1438 1440 1442 1448 1449 1448 1447 1450 1467 1474 1478 1480 1479 1478 1477 1476 1475 1474 1473 1473 1472 1472 1472 1471 1471 1470 1470 1470 1470 1470 1469 1469 1468 1467 1465 1463 1461 1459 1457 1455 1453 1451 1449 1447 1445 1443 1442
1435 1439 1440 1439 1438 1439 1441 1445 1450 1454 1453 1453 1451 1460 1466 1475 1481 1483 1482 1481 1480 1479 1478 1477 1477 1476 1476 1475 1474 1474 1474 1473 1473 1472 1472 1471 1470 1469 1467 1466 1464 1462 1461 1459 1456 1454 1451 1449 1447 1445 1443 1441 1439 1438
1441 1443 1444 1444 1444 1447 1451 1453 1456 1459 1459 1457 1460 1468 1475 1480 1482 1482 1482 1482 1481 1481 1480 1479 1479 1479 1478 1477 1477 1476 1476 1475 1475 1474 1472 1471 1470 1469 1466 1464 1462 1460 1457 1455 1453 1450 1448 1446 1444 1441 1439 1437 1434 1433
1446 1445 1446 1450 1453 1457 1460 1460 1462 1463 1462 1461 1465 1474 1478 1482 1483 1484 1483 1483 1482 1482 1482 1481 1481 1480 1479 1479 1478 1478 1477 1476 1474 1473 1471 1469 1467 1465 1463 1460 1458 1456 1453 1451 1448 1446 1444 1442 1440 1437 1435 1433 1431 1429
1449 1449 1450 1455 1460 1462 1462 1463 1464 1465 1465 1466 1469 1471 1476 1482 1485 1485 1485 1485 1484 1484 1483 1482 1482 1481 1481 1480 1478 1477 1476 1474 1473 1471 1469 1467 1465 1462 1459 1457 1454 1451 1449 1446 1444 1441 1439 1436 1434 1432 1430 1428 1427 1425
1453 1454 1454 1458 1462 1464 1464 1465 1465 1468 1470 1472 1474 1477 1480 1482 1484 1487 1487 1487 1486 1485 1484 1483 1482 1481 1480 1479 1478 1476 1474 1472 1470 1468 1465 1463 1460 1458 1455 1452 1450 1447 1444 1442 1439 1437 1434 1431 1429 1427 1426 1424 1423 1421
1457 1457 1458 1459 1461 1463 1464 1464 1465 1469 1472 1474 1477 1478 1479 1483 1486 1489 1488 1487 1487 1485 1484 1483 1482 1481 1479 1478 1476 1474 1472 1470 1467 1464 1462 1459 1457 1454 1451 1448 1446 1443 1440 1438 1435 1433 1430 1428 1426 1423 1422 1420 1418 1416